This is the latest recevied weather packets stored in our database for station/object DG3GAI-6. If no packets are shown the sender has not sent any weather packets the latest 10 day(s).
| Time | Temp. | Humidity | Pressure | Rain* | Wind** | Luminosity | Snow |
|---|---|---|---|---|---|---|---|
| 1777714000 | 15° C | 45% | 1025 hPa | - | - | - | - |
| 1777712192 | 14.44° C | 44% | 1025 hPa | - | - | - | - |
| 1777710385 | 13.89° C | 49% | 1025 hPa | - | - | - | - |
| 1777708578 | 13.33° C | 55% | 1025 hPa | - | - | - | - |
| 1777706771 | 12.22° C | 64% | 1025 hPa | - | - | - | - |
| 1777704963 | 11.11° C | 62% | 1025 hPa | - | - | - | - |
| 1777703156 | 10.56° C | 61% | 1026 hPa | - | - | - | - |
| 1777701349 | 10° C | 60% | 1026 hPa | - | - | - | - |
| 1777699542 | 9.44° C | 61% | 1026 hPa | - | - | - | - |
| 1777697734 | 9.44° C | 58% | 1025 hPa | - | - | - | - |
| 1777695927 | 8.89° C | 57% | 1025 hPa | - | - | - | - |
| 1777694120 | 8.89° C | 57% | 1026 hPa | - | - | - | - |
| 1777692313 | 9.44° C | 56% | 1026 hPa | - | - | - | - |
| 1777690505 | 9.44° C | 55% | 1026 hPa | - | - | - | - |
| 1777688698 | 9.44° C | 55% | 1026 hPa | - | - | - | - |
| 1777686891 | 8.89° C | 55% | 1026 hPa | - | - | - | - |
| 1777685084 | 9.44° C | 55% | 1026 hPa | - | - | - | - |
| 1777683276 | 10° C | 53% | 1026 hPa | - | - | - | - |
| 1777681469 | 10.56° C | 51% | 1026 hPa | - | - | - | - |
| 1777679662 | 10.56° C | 51% | 1027 hPa | - | - | - | - |
| 1777677855 | 11.11° C | 50% | 1027 hPa | - | - | - | - |
| 1777676047 | 11.11° C | 50% | 1027 hPa | - | - | - | - |
| 1777674241 | 11.11° C | 49% | 1027 hPa | - | - | - | - |
| 1777672433 | 11.67° C | 48% | 1027 hPa | - | - | - | - |
| 1777670625 | 11.67° C | 48% | 1027 hPa | - | - | - | - |
* Rain since midnight (hover to see other rain measurements)
** Current wind speed in m/s (hover to see current wind gust speed)